Buffalo, MN

2:54 PM CDT on June 25, 2018 (GMT -0500)
Buffalo

Weather History for KCFE - August, 2017

Change the Weather History Date:

Sunday, August 13, 2017

  Actual Average (KMIC) Record (KMIC)
Temperature  
Mean Temperature 65 °F -  
Max Temperature 70 °F 77 °F 88 °F (2003)
Min Temperature 60 °F 57 °F 46 °F (2004)
Growing Degree Days 15 (Base 50)    
Moisture  
Dew Point 57 °F    
Average Humidity 75    
Maximum Humidity 90    
Minimum Humidity 63    
Precipitation  
Precipitation 0.18 in - - ()
Sea Level Pressure  
Sea Level Pressure 29.97 in    
Wind  
Wind Speed 3 mph (SE)    
Max Wind Speed 17 mph    
Max Gust Speed 26 mph    
Visibility 10 miles    
Events Rain , Thunderstorm    
Averages and records for this station are not official NWS values.
T = Trace of Precipitation, MM = Missing Value Source: NWS Daily Summary

Daily Weather History Graph

Daily Weather History Graph

Search for Another Location

Airport or City:

Astronomy

Aug. 13, 2017 Rise Set
Actual Time 6:14 AM CDT 8:24 PM CDT
Civil Twilight 5:42 AM CDT 8:56 PM CDT
Nautical Twilight 5:02 AM CDT 9:36 PM CDT
Astronomical Twilight 4:18 AM CDT 10:20 PM CDT
Moon 11:42 PM CDT (8/13) 12:31 PM CDT (8/13)
Length of Visible Light 15h 14m
Length of Day
14h 10m
Waning Gibbous, 65% of the Moon is Illuminated
Aug 13
Waning Gibbous
Aug 14
Last Quarter
Aug 21
New
Aug 29
First Quarter
Sep 6
Full

Hourly Weather History & Observations

Time (CDT) Temp. Dew Point Humidity Pressure Visibility Wind Dir Wind Speed Gust Speed Precip Events Conditions
12:15 AM 62.8 °F 54.9 °F 75% 30.06 in 10.0 mi Calm Calm - N/A   Clear
12:34 AM 62.8 °F 54.5 °F 74% 30.07 in 10.0 mi Calm Calm - N/A   Clear
12:54 AM 62.2 °F 54.5 °F 76% 30.07 in 10.0 mi Calm Calm - N/A   Clear
1:15 AM 62.1 °F 54.0 °F 75% 30.06 in 10.0 mi Calm Calm - N/A   Clear
1:34 AM 61.9 °F 54.7 °F 77% 30.06 in 10.0 mi Calm Calm - N/A   Clear
1:54 AM 62.1 °F 54.3 °F 76% 30.05 in 10.0 mi Calm Calm - N/A   Clear
2:15 AM 62.1 °F 54.1 °F 75% 30.05 in 10.0 mi Calm Calm - N/A   Clear
2:34 AM 61.9 °F 53.8 °F 75% 30.04 in 10.0 mi Calm Calm - N/A   Scattered Clouds
2:54 AM 60.4 °F 53.6 °F 78% 30.04 in 10.0 mi Calm Calm - N/A   Mostly Cloudy
3:15 AM 62.1 °F 53.8 °F 74% 30.04 in 10.0 mi Calm Calm - N/A   Overcast
3:34 AM 61.9 °F 53.6 °F 74% 30.04 in 10.0 mi Calm Calm - N/A   Scattered Clouds
3:54 AM 61.2 °F 52.9 °F 74% 30.04 in 10.0 mi Calm Calm - N/A   Clear
4:15 AM 60.3 °F 52.9 °F 77% 30.04 in 10.0 mi Calm Calm - N/A   Clear
4:34 AM 60.3 °F 53.6 °F 79% 30.03 in 10.0 mi Calm Calm - N/A   Mostly Cloudy
4:54 AM 61.5 °F 53.2 °F 74% 30.03 in 10.0 mi Calm Calm - N/A   Overcast
5:14 AM 62.1 °F 53.8 °F 74% 30.03 in 10.0 mi Calm Calm - N/A Rain Light Rain
5:34 AM 61.9 °F 54.1 °F 76% 30.03 in 10.0 mi Calm Calm - N/A   Overcast
5:55 AM 62.1 °F 53.4 °F 73% 30.03 in 10.0 mi Calm Calm - N/A   Overcast
6:14 AM 62.1 °F 53.4 °F 73% 30.04 in 10.0 mi Calm Calm - N/A Rain Light Rain
6:34 AM 62.1 °F 53.1 °F 72% 30.03 in 10.0 mi SE 3.5 mph - N/A Rain Light Rain
6:55 AM 61.7 °F 53.4 °F 74% 30.03 in 10.0 mi Calm Calm - N/A   Overcast
7:14 AM 62.1 °F 53.1 °F 72% 30.03 in 10.0 mi ESE 3.5 mph - N/A   Overcast
7:34 AM 61.3 °F 53.1 °F 74% 30.02 in 10.0 mi SE 3.5 mph - N/A   Overcast
7:55 AM 62.1 °F 53.2 °F 73% 30.02 in 10.0 mi SE 4.6 mph - N/A   Overcast
8:14 AM 62.6 °F 53.2 °F 71% 30.02 in 10.0 mi SE 4.6 mph - N/A   Overcast
8:34 AM 63.9 °F 53.4 °F 69% 30.01 in 10.0 mi SE 4.6 mph - N/A   Overcast
8:55 AM 65.5 °F 53.6 °F 65% 30.01 in 10.0 mi SE 4.6 mph - N/A   Mostly Cloudy
9:14 AM 66.0 °F 53.6 °F 64% 30.01 in 10.0 mi SE 5.8 mph - N/A   Mostly Cloudy
9:34 AM 65.5 °F 53.1 °F 64% 30.01 in 10.0 mi SE 5.8 mph - N/A   Overcast
9:55 AM 65.5 °F 53.6 °F 65% 30.01 in 10.0 mi SE 5.8 mph - N/A Thunderstorm Overcast
10:14 AM 66.6 °F 54.1 °F 64% 30.01 in 10.0 mi ESE 6.9 mph - N/A   Overcast
10:34 AM 66.2 °F 54.1 °F 65% 30.01 in 10.0 mi SE 5.8 mph - N/A   Overcast
10:55 AM 66.0 °F 54.5 °F 66% 30.00 in 10.0 mi ESE 5.8 mph - N/A   Overcast
11:14 AM 65.7 °F 54.3 °F 67% 30.00 in 10.0 mi SE 6.9 mph - N/A   Overcast
11:34 AM 65.8 °F 54.1 °F 66% 30.00 in 10.0 mi SE 5.8 mph - N/A   Overcast
11:54 AM 66.2 °F 55.0 °F 67% 30.01 in 10.0 mi SSE 5.8 mph - N/A Rain Light Rain
12:14 PM 66.2 °F 55.2 °F 68% 30.00 in 10.0 mi SE 5.8 mph - N/A   Overcast
12:34 PM 68.0 °F 55.9 °F 65% 30.00 in 10.0 mi SE 8.1 mph - N/A   Mostly Cloudy
12:54 PM 69.1 °F 56.5 °F 64% 30.00 in 10.0 mi SSE 6.9 mph - N/A   Mostly Cloudy
1:14 PM 70.0 °F 57.4 °F 64% 30.00 in 10.0 mi SSE 5.8 mph - N/A   Mostly Cloudy
1:34 PM 70.0 °F 57.9 °F 65% 29.99 in 10.0 mi SSE 8.1 mph - N/A   Mostly Cloudy
1:55 PM 70.7 °F 57.4 °F 63% 29.98 in 10.0 mi ESE 11.5 mph 16.1 mph N/A   Mostly Cloudy
2:14 PM 70.5 °F 57.9 °F 64% 29.97 in 10.0 mi ESE 12.7 mph - N/A   Overcast
2:34 PM 69.1 °F 58.3 °F 68% 29.97 in 10.0 mi ESE 11.5 mph - N/A   Overcast
2:55 PM 69.1 °F 59.0 °F 70% 29.96 in 10.0 mi ESE 10.4 mph - N/A   Overcast
3:14 PM 68.5 °F 58.1 °F 69% 29.96 in 10.0 mi ESE 9.2 mph - N/A   Overcast
3:34 PM 67.3 °F 57.4 °F 70% 29.96 in 10.0 mi ESE 9.2 mph - N/A   Overcast
3:54 PM 67.1 °F 58.5 °F 74% 29.95 in 10.0 mi ESE 8.1 mph - N/A   Overcast
4:14 PM 66.4 °F 58.1 °F 75% 29.94 in 10.0 mi ESE 10.4 mph 17.3 mph N/A   Mostly Cloudy
4:34 PM 66.4 °F 58.8 °F 77% 29.94 in 10.0 mi ESE 6.9 mph - N/A Thunderstorm Scattered Clouds
4:54 PM 66.4 °F 58.5 °F 76% 29.94 in 10.0 mi ESE 5.8 mph - N/A Thunderstorm Overcast
5:14 PM 66.4 °F 58.6 °F 76% 29.92 in 10.0 mi East 5.8 mph - N/A Thunderstorm Mostly Cloudy
5:34 PM 66.2 °F 59.7 °F 80% 29.92 in 10.0 mi ESE 4.6 mph - N/A Rain , Thunderstorm Light Thunderstorms and Rain
5:54 PM 66.2 °F 59.9 °F 80% 29.92 in 10.0 mi ESE 4.6 mph - N/A Rain , Thunderstorm Thunderstorms and Rain
6:14 PM 66.4 °F 60.3 °F 81% 29.91 in 10.0 mi East 5.8 mph - 0.01 in Rain , Thunderstorm Light Thunderstorms and Rain
6:34 PM 66.4 °F 60.6 °F 82% 29.90 in 10.0 mi ESE 5.8 mph - 0.01 in Rain , Thunderstorm Light Thunderstorms and Rain
6:54 PM 65.7 °F 60.8 °F 84% 29.89 in 7.0 mi East 4.6 mph - 0.02 in Rain Light Rain
7:14 PM 65.5 °F 61.3 °F 86% 29.89 in 10.0 mi East 5.8 mph - N/A   Drizzle
7:35 PM 64.8 °F 61.0 °F 88% 29.89 in 10.0 mi East 6.9 mph - N/A   Overcast
7:54 PM 64.6 °F 61.0 °F 88% 29.89 in 7.0 mi East 4.6 mph - 0.01 in Rain Light Rain
8:14 PM 64.4 °F 61.2 °F 89% 29.89 in 10.0 mi East 5.8 mph - N/A Rain Light Rain
8:35 PM 64.4 °F 61.0 °F 89% 29.88 in 10.0 mi SE 5.8 mph - N/A Rain Rain
8:54 PM 64.4 °F 61.2 °F 89% 29.88 in 10.0 mi ESE 8.1 mph - 0.05 in Rain Rain
9:14 PM 64.4 °F 61.2 °F 89% 29.87 in 10.0 mi ESE 8.1 mph - N/A   Overcast
9:35 PM 64.4 °F 61.2 °F 89% 29.87 in 10.0 mi SE 4.6 mph - N/A Rain Light Rain
9:54 PM 64.6 °F 61.3 °F 89% 29.88 in 10.0 mi SE 4.6 mph - 0.01 in Rain Light Rain
10:14 PM 64.4 °F 60.8 °F 88% 29.88 in 10.0 mi SE 6.9 mph - 0.01 in Rain Light Rain
10:35 PM 63.9 °F 60.4 °F 89% 29.87 in 10.0 mi SE 10.4 mph - 0.03 in Rain Rain
10:54 PM 63.7 °F 60.4 °F 89% 29.84 in 10.0 mi SE 17.3 mph 24.2 mph 0.04 in Rain , Thunderstorm Light Thunderstorms and Rain
11:14 PM 62.8 °F 59.7 °F 90% 29.83 in 10.0 mi SSE 11.5 mph 26.5 mph 0.01 in Rain Light Rain
11:35 PM 63.0 °F 60.1 °F 90% 29.82 in 10.0 mi SE 10.4 mph 17.3 mph 0.03 in Rain Light Rain
11:54 PM 63.1 °F 59.9 °F 89% 29.83 in 10.0 mi SSE 8.1 mph 21.9 mph 0.05 in Rain Rain